Theta_e
309 307 305 308 310 308 309 310 308 307 308 311 311 311 308 306 306 306 305 304 304 304 305 306 307 308 308 309 309 309 312 315 317 319 324 326 330 328 327 328 328 325 326 322
306 310 308 307 308 310 310 306 306 306 307 312 310 308 307 305 306 306 306 304 304 304 304 305 306 307 308 307 308 309 311 314 318 322 325 324 326 328 326 328 325 324 324 324
307 308 307 307 307 309 306 304 300 308 307 311 307 304 303 304 306 305 305 304 304 304 303 304 305 307 307 308 307 308 309 312 316 320 323 326 325 325 327 327 324 326 324 324
307 306 307 306 307 306 307 305 307 309 308 306 304 305 297 301 304 304 304 302 303 303 303 304 304 306 307 309 307 307 308 311 316 318 319 323 324 325 325 326 325 325 327 325
306 306 306 307 307 306 305 307 308 307 309 312 303 299 299 302 302 303 303 302 302 302 302 303 303 304 306 308 309 307 307 309 316 318 318 321 323 324 323 324 322 322 325 324
306 307 306 306 306 306 306 307 305 308 308 304 299 301 300 298 301 302 303 300 300 301 300 303 302 304 305 307 309 310 310 309 311 316 317 318 320 323 322 320 322 324 325 325
306 307 306 306 306 305 307 305 300 299 301 306 304 304 303 301 303 304 302 299 299 298 298 300 303 303 304 306 307 309 310 311 310 311 314 316 320 322 320 319 318 320 318 316
305 305 307 306 306 305 307 306 302 301 305 305 306 306 305 302 304 304 300 299 298 298 298 298 299 302 303 304 305 306 308 308 310 311 311 311 312 313 314 313 314 313 312 313
307 308 306 305 305 305 307 306 305 307 300 306 305 305 304 302 301 299 299 298 298 298 298 298 298 298 301 302 303 303 306 307 309 309 310 311 311 311 311 311 310 310 310 310
306 306 305 305 306 305 306 304 306 302 300 302 303 307 306 305 303 299 298 298 298 298 297 297 297 298 298 299 302 302 302 304 306 307 308 309 310 310 310 310 310 310 310 309
304 303 303 305 306 306 307 307 306 304 306 306 307 303 301 303 302 300 298 298 298 298 297 297 297 297 297 298 298 301 302 302 302 303 305 305 306 306 307 308 307 308 308 308
304 302 301 305 303 302 305 305 305 304 303 305 307 305 302 301 301 301 298 299 298 298 297 297 297 297 297 297 298 298 300 302 302 302 302 302 303 303 303 303 303 303 303 303
303 297 294 299 302 303 306 305 305 304 304 305 305 303 300 300 299 300 298 299 299 298 297 297 297 297 297 297 297 297 298 298 301 302 302 302 302 302 301 301 301 301 302 302
303 300 300 303 304 303 305 304 304 305 303 304 305 305 303 300 298 297 298 299 299 298 297 297 296 296 296 296 296 297 297 298 298 298 299 300 300 300 300 299 299 298 298 298
302 298 299 302 302 303 304 304 304 306 305 304 303 303 302 301 298 298 299 299 299 298 297 297 297 296 296 296 296 296 297 297 297 298 298 298 298 298 298 297 297 297 297 297
300 297 296 295 298 299 300 302 302 303 305 305 305 306 300 303 302 299 299 299 299 299 297 297 297 296 296 296 296 296 296 296 296 297 297 297 297 297 296 296 296 296 296 296
301 295 292 295 293 292 299 296 299 301 301 304 305 305 301 299 298 300 300 299 299 299 298 297 297 297 296 296 296 296 296 296 296 296 296 296 296 296 296 295 295 295 294 294
296 292 286 291 289 300 304 296 296 298 299 301 301 300 300 302 304 304 305 302 300 300 299 297 297 297 296 296 295 296 296 296 296 296 296 295 295 295 294 294 294 294 294 294
297 296 287 293 287 297 302 294 295 297 299 297 300 301 300 302 302 303 304 305 304 301 300 298 297 297 296 296 295 296 296 296 296 296 295 295 294 294 294 294 294 294 293 294
295 295 295 282 291 298 303 295 295 296 298 296 296 298 297 299 300 300 303 304 305 301 300 298 297 297 296 295 295 296 296 295 295 295 294 294 293 293 293 294 294 294 294 294
300 294 292 283 289 293 295 295 295 298 304 297 297 297 298 299 300 303 303 304 305 304 300 298 298 297 296 295 295 296 295 295 295 294 294 293 293 293 294 294 294 294 293 293
301 300 297 286 290 299 294 294 296 299 298 298 299 298 298 300 301 301 305 305 305 302 300 298 298 297 296 295 295 295 296 295 294 294 293 293 293 293 293 293 293 293 293 293
301 298 297 298 299 298 296 298 298 299 298 298 299 300 299 299 300 303 305 305 304 301 300 299 298 297 296 295 296 296 295 295 294 292 292 292 292 293 293 293 293 293 293 293
294 295 295 297 300 296 297 299 299 298 299 299 299 299 300 300 300 302 304 304 303 301 300 299 298 297 296 296 296 296 295 294 293 292 292 292 293 293 292 292 293 293 293 293
295 295 295 295 297 297 298 300 302 300 300 298 299 299 299 299 300 301 302 304 303 301 300 299 299 298 297 296 296 296 295 294 292 292 292 292 292 292 292 292 292 293 293 293
293 296 299 301 300 303 303 306 306 302 302 301 299 299 298 298 299 301 302 304 304 302 301 299 299 298 297 296 296 296 295 293 292 292 292 292 292 292 292 292 292 292 292 292
Wind_Speed
3 5 2 1 2 4 4 2 2 4 3 4 2 5 5 11 14 16 20 22 24 25 27 26 27 28 25 24 26 25 23 19 19 23 24 27 30 30 32 37 37 31 36 33
4 3 3 2 2 2 2 1 3 4 2 0 5 6 2 4 5 11 15 20 23 27 29 28 26 30 33 26 22 20 21 18 16 20 22 23 25 27 27 38 36 31 35 32
3 2 4 2 1 1 2 3 2 3 5 2 6 4 3 3 5 12 15 19 21 25 27 28 31 27 35 33 23 17 15 17 16 18 21 19 19 19 25 33 27 33 35 33
1 1 2 1 0 2 3 4 3 2 3 1 4 4 4 4 4 6 13 17 21 23 28 27 30 33 29 34 24 17 15 7 11 13 17 21 20 14 22 23 30 32 33 33
2 4 2 0 1 3 4 3 2 1 2 1 3 3 6 4 4 6 11 15 17 20 23 29 29 29 31 27 27 26 26 22 2 3 8 15 19 20 6 14 15 25 34 29
2 0 2 3 1 2 1 0 3 2 2 2 4 4 5 2 4 4 6 12 14 18 19 18 22 28 32 29 29 30 36 35 21 6 8 7 11 22 18 11 18 19 24 26
1 1 1 2 1 1 3 4 3 5 3 4 3 2 8 5 5 4 4 9 12 14 18 18 20 24 27 31 30 32 37 41 40 29 25 19 17 17 22 21 26 22 23 24
4 3 4 2 1 2 2 3 4 4 2 5 1 4 5 5 5 4 1 3 8 11 14 16 17 18 20 21 25 30 33 28 40 45 45 45 47 42 40 39 36 40 37 36
4 1 1 2 2 2 2 2 2 4 2 2 3 5 4 4 4 4 3 1 4 8 11 14 16 17 14 14 19 22 26 32 34 33 36 42 43 45 42 39 40 37 33 30
4 3 0 1 3 3 1 4 3 3 1 4 4 5 4 6 8 6 5 5 2 3 6 9 12 14 15 16 15 15 20 23 30 36 35 33 30 32 32 29 30 31 31 31
4 2 1 2 4 6 2 1 2 2 3 3 3 5 6 7 9 9 11 9 5 1 3 6 10 13 15 16 18 19 19 21 22 22 23 23 25 25 26 26 25 24 23 22
3 3 3 3 1 2 1 5 4 3 3 3 0 7 1 4 10 16 15 11 7 4 0 3 7 10 12 15 17 19 19 19 20 20 20 22 21 21 23 23 23 22 23 22
6 1 2 6 4 3 4 4 3 3 2 6 4 5 2 4 5 13 16 13 9 7 4 1 3 6 9 13 15 16 17 18 17 17 18 20 21 22 23 23 23 23 23 23
7 2 4 5 3 4 4 4 6 5 3 3 7 3 4 6 7 11 16 15 12 10 7 5 2 4 7 9 11 13 14 15 15 16 18 20 21 21 22 22 22 22 21 21
4 4 2 4 5 3 5 6 8 13 10 8 2 8 6 8 10 21 21 18 16 14 11 7 3 1 4 7 9 11 12 14 13 15 17 19 20 20 20 20 21 20 19 20
2 2 2 3 2 3 6 11 13 15 16 16 17 28 10 10 10 15 26 24 22 19 16 12 10 6 2 4 5 9 10 14 13 14 18 19 18 18 18 18 18 18 17 17
7 6 3 5 3 5 9 11 19 9 7 15 15 14 6 6 11 20 28 31 29 24 20 16 11 8 6 5 6 7 9 11 10 13 15 15 15 16 15 15 15 15 15 14
6 5 2 3 3 1 5 3 5 16 11 18 15 9 9 13 23 24 26 33 32 27 23 20 17 15 12 9 8 7 8 8 8 9 9 10 10 11 13 13 13 13 13 13
2 5 2 4 4 7 4 5 7 8 8 19 23 20 15 11 10 20 22 30 31 31 26 20 16 15 14 11 11 10 9 9 8 8 8 8 8 8 11 11 11 11 11 11
4 4 4 3 5 8 4 3 8 4 6 6 17 14 11 15 5 7 24 24 29 31 27 23 20 18 16 14 13 13 11 10 9 9 8 6 6 6 7 9 9 9 9 10
5 1 6 3 3 9 10 7 10 5 6 6 11 16 24 9 12 3 7 23 26 30 30 25 22 19 16 16 16 15 13 11 10 9 8 6 5 5 6 6 6 6 8 11
11 10 4 3 1 10 18 9 8 6 6 7 6 12 25 26 16 19 9 18 26 33 33 29 25 22 19 18 17 16 14 12 11 9 8 7 5 4 3 3 5 8 10 11
5 8 7 12 9 1 35 8 26 6 5 8 7 5 12 19 20 16 16 17 30 35 34 30 26 23 21 20 19 17 14 14 13 12 9 7 4 3 1 3 6 7 9 13
4 6 4 4 9 16 25 36 17 26 13 8 7 6 10 15 20 22 18 17 31 35 34 31 28 26 23 23 21 17 16 16 15 13 10 8 6 4 3 4 6 7 10 13
5 15 8 5 10 4 22 35 35 38 26 22 15 11 12 12 14 19 22 22 30 35 35 33 31 28 25 24 23 20 20 19 17 14 13 11 8 5 6 5 6 8 10 13
9 8 8 8 12 14 10 17 30 41 38 34 28 26 20 16 13 17 23 23 27 35 36 35 32 29 25 26 24 22 22 21 18 16 14 12 10 8 8 7 6 7 11 13
Wind_Direction
21 71 105 174 71 121 129 169 239 264 287 348 293 294 310 359 23 14 6 359 354 352 351 344 352 351 335 326 319 320 309 271 251 241 240 239 235 243 245 249 230 228 222 221
29 94 175 139 123 124 134 102 283 285 277 230 323 299 295 339 18 28 13 2 357 358 355 352 353 356 -0 341 330 325 319 288 251 226 234 240 243 235 248 239 241 235 223 216
119 118 126 82 31 175 183 168 230 243 333 7 332 310 323 287 24 23 16 15 10 1 353 359 3 357 358 358 349 341 333 308 269 233 222 229 236 243 246 242 237 228 221 210
146 38 134 90 187 133 314 195 169 294 29 286 50 284 299 313 318 350 8 13 9 16 12 13 16 16 4 10 4 23 18 342 302 255 231 219 224 230 227 221 221 217 230 210
196 160 152 78 241 164 236 162 210 265 212 54 301 77 265 341 328 323 339 3 349 356 5 9 13 15 19 12 19 37 43 51 31 264 206 211 221 222 164 222 230 234 216 199
210 263 175 178 165 188 345 86 39 44 67 9 237 123 281 221 216 295 333 353 351 353 358 6 11 19 23 25 31 46 53 60 66 100 178 187 214 202 197 184 190 202 202 198
70 235 261 171 107 85 78 59 334 350 6 232 157 60 247 219 213 205 312 345 350 354 0 8 13 12 20 24 34 42 52 61 70 88 107 115 136 144 135 149 136 147 128 116
161 311 176 177 159 155 87 138 150 248 277 287 110 228 255 201 168 175 220 339 349 1 6 11 23 26 20 24 27 35 51 57 67 75 82 92 96 103 103 105 102 94 98 93
144 259 82 71 125 132 159 137 163 107 35 354 245 281 287 158 211 190 195 274 349 357 7 15 22 23 26 25 32 32 52 57 68 71 74 81 84 90 96 93 94 93 84 82
214 122 6 139 107 28 156 152 68 7 20 288 283 273 239 214 220 215 224 212 259 350 9 25 30 31 35 37 44 50 54 58 68 69 72 82 86 89 93 91 90 94 99 99
152 101 211 111 202 182 128 184 96 147 163 217 301 262 215 208 195 195 209 202 196 185 5 26 32 36 37 41 46 51 58 65 68 75 85 82 82 84 89 91 91 90 92 89
195 141 182 172 116 329 212 206 158 139 229 245 147 273 316 224 194 186 193 195 188 182 196 34 41 37 42 46 48 54 59 64 70 77 83 86 90 95 97 97 97 97 96 97
178 272 45 350 8 5 225 198 167 112 98 212 158 261 37 107 169 194 188 195 195 192 188 183 68 59 49 50 52 54 62 66 75 83 88 92 93 93 93 92 93 93 93 91
138 127 190 184 153 136 205 208 196 169 167 202 231 260 265 224 195 209 205 199 203 203 196 194 160 86 70 63 61 64 67 72 79 88 92 92 91 90 90 91 91 91 90 88
130 192 161 244 230 212 218 217 199 214 214 198 240 223 217 226 208 207 208 202 201 207 207 203 213 151 98 78 73 73 78 81 84 92 95 93 91 92 92 91 89 87 85 82
159 206 110 301 9 228 248 237 233 234 234 255 265 276 206 219 222 197 206 208 208 207 206 204 196 197 146 102 103 101 94 92 93 97 95 96 98 100 99 95 93 89 84 78
149 137 109 262 341 320 294 221 210 215 202 219 232 237 161 171 196 215 209 206 210 210 205 203 203 199 189 169 155 134 118 105 103 101 100 100 100 100 98 92 85 78 74 67
134 109 80 216 10 301 243 179 167 213 238 220 248 229 205 203 225 233 221 209 210 211 207 203 199 195 191 187 172 157 146 130 127 114 112 112 112 110 101 91 79 70 63 55
126 128 99 147 204 298 261 190 172 178 272 219 227 240 222 213 228 244 231 223 220 210 207 203 200 194 192 192 183 174 169 164 157 147 145 139 123 105 93 88 80 67 55 44
102 66 132 114 172 214 230 179 175 148 292 214 202 231 172 159 203 239 224 217 215 213 204 195 196 197 197 192 192 184 182 179 175 166 160 150 122 110 96 84 71 55 40 30
138 68 169 165 233 287 238 150 149 90 238 171 197 212 175 194 202 128 202 204 211 204 198 197 200 202 197 194 194 194 189 186 186 180 175 162 141 124 101 81 61 39 22 18
165 160 179 115 121 268 153 115 183 207 171 187 179 201 206 216 217 230 232 204 196 191 194 199 200 198 199 196 197 201 197 195 195 198 193 185 180 163 133 65 27 15 11 4
196 183 178 189 206 235 180 200 204 199 187 204 199 210 219 212 211 207 207 199 189 189 196 201 202 202 201 201 202 206 208 203 203 207 208 207 203 213 282 10 360 353 358 358
241 166 190 129 241 225 220 222 228 227 224 224 210 220 222 221 213 211 213 205 194 195 199 203 202 205 207 205 207 208 213 214 216 216 217 218 219 234 298 318 328 347 356 353
191 150 169 264 262 272 248 232 233 234 233 229 225 233 239 232 223 216 213 211 203 201 203 204 208 212 212 209 209 212 214 214 224 225 218 221 230 245 270 294 322 340 351 350
192 167 178 216 194 196 232 238 239 235 235 235 231 230 227 230 229 221 216 214 209 206 207 207 210 214 214 211 213 218 219 219 222 227 225 224 232 248 273 294 314 341 347 345